When you browse on this site, cookies collect data to enhance your experience and personalize the content and advertising you see.
Visit our Privacy Policy to learn more. By continuing to use the site, you agree to this use of cookies and data.
  • In France
  • List of Countries
  • For 7 days
  • Water Temperature
  • Weather Map
  • Weather Widgets
  • user-avatar
    Login

    Hourly Weather Haleb

    Today, 21 August, Wednesday

    Time Temperature Precipitation Wind Pressure Humidity
    00:00 +21°C° 0 mm 5 mps 720 mmHg 84%
    01:00 +21°C° 0 mm 4 mps 720 mmHg 87%
    02:00 +20°C° 0 mm 3 mps 720 mmHg 90%
    03:00 +20°C° 0 mm 3 mps 720 mmHg 90%
    04:00 +20°C° 0 mm 3 mps 720 mmHg 90%
    05:00 +20°C° 0 mm 4 mps 720 mmHg 90%
    06:00 +22°C° 0 mm 4 mps 720 mmHg 79%
    07:00 +26°C° 0 mm 5 mps 721 mmHg 68%
    08:00 +28°C° 0 mm 6 mps 721 mmHg 57%
    09:00 +30°C° 0 mm 6 mps 721 mmHg 47%
    10:00 +33°C° 0 mm 7 mps 721 mmHg 38%
    11:00 +35°C° 0 mm 7 mps 721 mmHg 28%
    12:00 +37°C° 0 mm 8 mps 721 mmHg 28%
    13:00 +37°C° 0 mm 8 mps 720 mmHg 27%
    14:00 +38°C° 0 mm 9 mps 720 mmHg 27%
    15:00 +37°C° 0 mm 9 mps 720 mmHg 30%
    16:00 +34°C° 0 mm 9 mps 720 mmHg 32%
    17:00 +33°C° 0 mm 9 mps 720 mmHg 35%
    18:00 +30°C° 0 mm 7 mps 720 mmHg 47%
    19:00 +27°C° 0 mm 6 mps 720 mmHg 58%
    20:00 +25°C° 0 mm 5 mps 720 mmHg 69%
    21:00 +23°C° 0 mm 5 mps 720 mmHg 74%
    22:00 +23°C° 0 mm 4 mps 720 mmHg 79%
    23:00 +22°C° 0 mm 4 mps 720 mmHg 84%

    Tomorrow, 22 August, Thursday

    Time Temperature Precipitation Wind Pressure Humidity
    00:00 +22°C° 0 mm 4 mps 720 mmHg 85%
    01:00 +21°C° 0 mm 4 mps 719 mmHg 86%
    02:00 +21°C° 0 mm 4 mps 719 mmHg 87%
    03:00 +21°C° 0 mm 3 mps 719 mmHg 87%
    04:00 +21°C° 0 mm 3 mps 719 mmHg 87%
    05:00 +21°C° 0 mm 3 mps 719 mmHg 88%
    06:00 +23°C° 0 mm 4 mps 719 mmHg 75%
    07:00 +26°C° 0 mm 4 mps 720 mmHg 63%
    08:00 +29°C° 0 mm 5 mps 720 mmHg 51%
    09:00 +32°C° 0 mm 5 mps 720 mmHg 42%
    10:00 +34°C° 0 mm 5 mps 720 mmHg 34%
    11:00 +37°C° 0 mm 5 mps 720 mmHg 26%
    12:00 +39°C° 0 mm 6 mps 720 mmHg 24%
    13:00 +39°C° 0 mm 6 mps 719 mmHg 21%
    14:00 +40°C° 0 mm 7 mps 719 mmHg 19%
    15:00 +39°C° 0 mm 7 mps 719 mmHg 24%
    16:00 +38°C° 0 mm 7 mps 719 mmHg 28%
    17:00 +35°C° 0 mm 8 mps 718 mmHg 32%
    18:00 +33°C° 0 mm 7 mps 719 mmHg 41%
    19:00 +30°C° 0 mm 6 mps 719 mmHg 51%
    20:00 +27°C° 0 mm 5 mps 719 mmHg 61%
    21:00 +26°C° 0 mm 4 mps 719 mmHg 66%
    22:00 +26°C° 0 mm 4 mps 719 mmHg 70%
    23:00 +25°C° 0 mm 4 mps 719 mmHg 75%

    Day after tomorrow, 23 August, Friday

    Time Temperature Precipitation Wind Pressure Humidity
    00:00 +23°C° 0 mm 4 mps 719 mmHg 77%
    01:00 +24°C° 0 mm 3 mps 719 mmHg 78%
    02:00 +22°C° 0 mm 3 mps 718 mmHg 80%
    03:00 +22°C° 0 mm 3 mps 718 mmHg 81%
    04:00 +23°C° 0 mm 2 mps 718 mmHg 82%
    05:00 +21°C° 0 mm 2 mps 718 mmHg 84%
    06:00 +25°C° 0 mm 2 mps 718 mmHg 73%
    07:00 +27°C° 0 mm 3 mps 719 mmHg 62%
    08:00 +30°C° 0 mm 3 mps 719 mmHg 51%
    09:00 +33°C° 0 mm 3 mps 719 mmHg 43%
    10:00 +35°C° 0 mm 3 mps 719 mmHg 35%
    11:00 +37°C° 0 mm 4 mps 720 mmHg 26%
    12:00 +39°C° 0 mm 5 mps 719 mmHg 23%
    13:00 +40°C° 0 mm 5 mps 719 mmHg 20%
    14:00 +41°C° 0 mm 6 mps 719 mmHg 17%
    15:00 +41°C° 0 mm 6 mps 718 mmHg 18%
    16:00 +40°C° 0 mm 6 mps 718 mmHg 19%
    17:00 +39°C° 0 mm 6 mps 718 mmHg 20%
    18:00 +36°C° 0 mm 5 mps 718 mmHg 27%
    19:00 +33°C° 0 mm 4 mps 718 mmHg 34%
    20:00 +29°C° 0 mm 4 mps 718 mmHg 42%
    21:00 +28°C° 0 mm 3 mps 718 mmHg 47%
    22:00 +27°C° 0 mm 3 mps 718 mmHg 52%
    23:00 +26°C° 0 mm 3 mps 718 mmHg 57%

    24 August, Saturday

    Time Temperature Precipitation Wind Pressure Humidity
    00:00 +26°C° 0 mm 3 mps 718 mmHg 58%
    01:00 +25°C° 0 mm 3 mps 718 mmHg 59%
    02:00 +25°C° 0 mm 2 mps 718 mmHg 60%
    03:00 +24°C° 0 mm 2 mps 718 mmHg 62%
    04:00 +23°C° 0 mm 1 mps 718 mmHg 65%
    05:00 +20°C° 0 mm 0 mps 718 mmHg 67%
    06:00 +26°C° 0 mm 1 mps 719 mmHg 56%
    07:00 +29°C° 0 mm 2 mps 719 mmHg 45%
    08:00 +32°C° 0 mm 2 mps 719 mmHg 34%
    09:00 +35°C° 0 mm 2 mps 720 mmHg 29%
    10:00 +36°C° 0 mm 1 mps 720 mmHg 23%
    11:00 +37°C° 0 mm 0 mps 720 mmHg 18%
    12:00 +41°C° 0 mm 1 mps 719 mmHg 16%
    13:00 +42°C° 0 mm 2 mps 719 mmHg 15%
    14:00 +43°C° 0 mm 2 mps 719 mmHg 13%
    15:00 +43°C° 0 mm 3 mps 718 mmHg 13%
    16:00 +43°C° 0 mm 4 mps 718 mmHg 14%
    17:00 +43°C° 0 mm 4 mps 718 mmHg 14%
    18:00 +40°C° 0 mm 4 mps 718 mmHg 19%
    19:00 +36°C° 0 mm 4 mps 718 mmHg 23%
    20:00 +33°C° 0 mm 4 mps 718 mmHg 28%
    21:00 +32°C° 0 mm 4 mps 718 mmHg 31%
    22:00 +29°C° 0 mm 4 mps 718 mmHg 35%
    23:00 +28°C° 0 mm 4 mps 718 mmHg 38%

    25 August, Sunday

    Time Temperature Precipitation Wind Pressure Humidity
    00:00 +27°C° 0 mm 4 mps 718 mmHg 42%
    01:00 +27°C° 0 mm 3 mps 718 mmHg 46%
    02:00 +26°C° 0 mm 3 mps 718 mmHg 50%
    03:00 +25°C° 0 mm 3 mps 718 mmHg 52%
    04:00 +25°C° 0 mm 3 mps 718 mmHg 54%
    05:00 +25°C° 0 mm 3 mps 718 mmHg 55%
    06:00 +27°C° 0 mm 3 mps 718 mmHg 48%
    07:00 +30°C° 0 mm 3 mps 719 mmHg 40%
    08:00 +33°C° 0 mm 3 mps 719 mmHg 32%
    09:00 +36°C° 0 mm 4 mps 720 mmHg 27%
    10:00 +38°C° 0 mm 4 mps 720 mmHg 22%
    11:00 +41°C° 0 mm 5 mps 720 mmHg 17%
    12:00 +42°C° 0 mm 5 mps 720 mmHg 17%
    13:00 +44°C° 0 mm 6 mps 719 mmHg 16%
    14:00 +44°C° 0 mm 7 mps 719 mmHg 15%
    15:00 +43°C° 0 mm 7 mps 719 mmHg 19%
    16:00 +40°C° 0 mm 8 mps 719 mmHg 22%
    17:00 +38°C° 0 mm 8 mps 719 mmHg 25%
    18:00 +35°C° 0 mm 7 mps 719 mmHg 34%
    19:00 +32°C° 0 mm 6 mps 719 mmHg 43%
    20:00 +28°C° 0 mm 5 mps 719 mmHg 52%
    21:00 +27°C° 0 mm 5 mps 719 mmHg 58%
    22:00 +26°C° 0 mm 5 mps 719 mmHg 64%
    23:00 +25°C° 0 mm 4 mps 719 mmHg 70%

    26 August, Monday

    Time Temperature Precipitation Wind Pressure Humidity
    00:00 +25°C° 0 mm 4 mps 719 mmHg 72%
    01:00 +23°C° 0 mm 4 mps 719 mmHg 73%
    02:00 +24°C° 0 mm 3 mps 718 mmHg 75%
    03:00 +22°C° 0 mm 3 mps 718 mmHg 76%
    04:00 +22°C° 0 mm 3 mps 719 mmHg 76%
    05:00 +21°C° 0 mm 3 mps 719 mmHg 77%
    06:00 +25°C° 0 mm 3 mps 719 mmHg 66%
    07:00 +28°C° 0 mm 4 mps 719 mmHg 55%
    08:00 +32°C° 0 mm 4 mps 720 mmHg 45%
    09:00 +34°C° 0 mm 5 mps 720 mmHg 38%
    10:00 +36°C° 0 mm 6 mps 720 mmHg 31%
    11:00 +40°C° 0 mm 6 mps 721 mmHg 24%
    12:00 +40°C° 0 mm 7 mps 720 mmHg 23%
    13:00 +41°C° 0 mm 8 mps 720 mmHg 21%
    14:00 +43°C° 0 mm 9 mps 720 mmHg 19%
    15:00 +40°C° 0 mm 8 mps 720 mmHg 21%
    16:00 +39°C° 0 mm 8 mps 719 mmHg 24%
    17:00 +38°C° 0 mm 8 mps 719 mmHg 26%
    18:00 +34°C° 0 mm 7 mps 719 mmHg 32%
    19:00 +32°C° 0 mm 6 mps 719 mmHg 39%
    20:00 +28°C° 0 mm 5 mps 720 mmHg 45%
    21:00 +27°C° 0 mm 4 mps 719 mmHg 52%
    22:00 +26°C° 0 mm 4 mps 719 mmHg 58%
    23:00 +25°C° 0 mm 4 mps 719 mmHg 64%
    Show more